SCP
0 0 0 0 0 0 0 0 0 0 0 0 0 0 0 0 0 0 0 0 0 0 0 0 0 0 0 0 0 0 0 0 0 0 0 0 0 0 0 0 0 0 0 0
0 0 0 0 0 0 0 0 0 0 0 0 0 0 0 0 0 0 0 0 0 0 0 0 0 0 0 0 0 0 0 0 0 0 0 0 0 0 0 0 0 0 0 0
0 0 0 0 0 0 0 0 0 0 0 0 0 0 0 0 0 0 0 0 0 0 0 0 0 0 0 0 0 0 0 0 0 0 0 0 0 0 0 0 0 0 0 0
0 0 0 0 0 0 0 0 0 0 0 0 0 0 0 0 0 0 0 0 0 0 0 0 0 0 0 0 0 0 0 0 0 0 0 0 0 0 0 0 0 0 0 0
0 0 0 0 0 0 0 0 0 0 0 0 0 0 0 0 0 0 0 0 0 0 0 0 0 0 0 0 0 0 0 0 0 0 0 0 0 0 0 0 0 0 0 0
0 0 0 0 0 0 0 0 0 0 0 0 0 0 0 0 0 0 0 0 0 0 0 0 0 0 0 0 0 0 0 0 0 0 0 0 0 0 0 0 0 0 0 0
0 0 0 0 0 0 0 0 0 0 0 0 0 0 0 0 0 0 0 0 0 0 0 0 0 0 0 0 0 0 0 0 0 0 0 0 0 0 0 0 0 0 0 0
0 0 0 0 0 0 0 0 0 0 0 0 0 0 0 0 0 0 0 0 0 0 0 0 0 0 0 0 0 0 0 0 0 0 0 0 0 0 0 0 0 0 0 0
0 0 0 0 0 0 0 0 0 0 0 0 0 0 0 0 0 0 0 0 0 0 0 0 0 0 0 0 0 0 0 0 0 0 0 0 0 0 0 0 0 0 0 0
0 0 0 0 0 0 0 0 0 0 0 0 0 0 0 0 0 0 0 0 0 0 0 0 0 0 0 0 0 0 0 0 0 0 0 0 0 0 0 0 0 0 0 0
0 0 0 0 0 0 0 0 0 0 0 0 0 0 0 0 0 0 0 0 0 0 0 0 0 0 0 0 0 0 0 0 0 0 0 0 0 0 0 0 0 0 0 0
0 0 0 0 0 0 0 0 0 0 0 0 0 0 0 0 0 0 0 0 0 0 0 0 0 0 0 0 0 0 0 0 0 0 0 0 0 0 0 0 0 0 0 0
0 0 0 0 0 0 0 0 0 0 0 0 0 0 0 0 0 0 0 0 0 0 0 0 0 0 0 0 0 0 0 0 0 0 0 0 0 0 0 0 0 0 0 0
0 0 0 0 0 0 0 0 0 0 0 0 0 0 0 0 0 0 0 0 0 0 0 0 0 0 0 0 0 0 0 0 0 0 0 0 0 0 0 0 0 0 0 0
0 0 0 0 0 0 0 0 0 0 0 0 0 0 0 0 0 0 0 0 0 0 0 0 0 0 0 0 0 0 0 0 0 0 0 0 0 0 0 0 0 0 0 0
0 0 0 0 0 0 0 0 0 0 0 0 0 0 0 0 0 0 0 0 0 0 0 0 0 0 0 0 0 0 0 0 0 0 0 0 0 0 0 0 0 0 0 0
0 0 0 0 0 0 0 0 0 0 0 0 0 0 0 0 0 0 0 0 0 0 0 0 0 0 0 0 0 0 0 0 0 0 0 0 0 0 0 0 0 0 -0 -0
0 0 0 0 0 0 0 0 0 0 0 0 0 0 0 0 0 0 0 0 0 0 0 0 0 0 0 0 0 0 0 0 0 0 0 0 0 0 0 0 0 -0 -0 -0
0 0 0 0 0 0 0 0 0 0 0 0 0 0 0 0 0 0 0 0 0 0 0 0 0 0 0 0 0 0 0 0 0 0 0 0 0 0 0 0 -0 -0 -0 -0
0 0 0 0 0 0 0 0 0 0 0 0 0 0 0 0 0 0 0 0 0 0 0 0 0 0 0 0 0 0 0 0 0 0 0 0 0 0 0 -0 -0 -0 -0 -0
0 0 0 0 0 0 0 0 0 0 0 0 0 0 0 0 0 0 0 0 0 0 0 0 0 0 0 0 0 0 0 0 0 0 0 0 0 0 0 -0 -0 -0 0 0
0 0 0 0 0 0 0 0 0 0 0 0 0 0 0 0 0 0 0 0 0 0 0 0 0 0 0 0 0 0 0 0 0 0 0 0 0 0 0 0 0 0 0 0
0 0 0 0 0 0 0 0 0 0 0 0 0 0 0 0 0 0 0 0 0 0 0 0 0 0 0 0 0 0 0 0 0 0 0 0 0 0 0 0 0 0 0 0
0 0 0 0 0 0 0 0 0 0 0 0 0 0 0 0 0 0 0 0 0 0 0 0 0 0 0 0 0 0 0 0 0 0 0 0 0 0 0 0 0 0 0 0
0 0 0 0 0 0 0 0 0 0 0 0 0 0 0 0 0 0 0 0 0 0 0 0 0 0 0 0 0 0 0 0 0 0 0 0 0 0 0 0 0 0 0 0
0 0 0 0 0 0 0 0 0 0 0 0 0 0 0 0 0 0 0 0 0 0 0 0 0 0 0 0 0 0 0 0 0 0 0 0 0 0 0 0 0 0 0 0
Wind_Speed
8 8 13 14 14 9 6 10 10 6 5 6 7 8 7 7 7 8 7 7 7 8 7 7 8 8 8 8 9 11 12 12 10 8 8 7 7 6 5 5 7 8 7 7
8 13 12 10 11 11 8 8 9 5 2 2 4 9 8 8 8 8 9 8 8 7 6 7 7 7 7 8 8 9 11 12 11 9 8 6 6 6 6 6 7 8 8 8
14 7 10 10 9 10 9 7 6 6 4 0 2 7 10 11 10 9 8 8 7 7 7 7 7 7 7 7 7 7 9 10 12 10 6 5 5 4 5 6 6 7 8 8
12 6 11 10 9 9 8 3 1 8 6 4 6 5 7 11 11 11 9 8 8 6 5 6 6 6 6 6 5 6 6 7 9 11 9 8 7 7 7 5 5 7 8 8
9 8 9 11 10 8 3 5 5 5 3 1 4 4 7 4 6 8 9 9 7 5 4 5 5 4 3 2 2 3 4 5 6 9 10 9 8 6 4 4 6 6 6 7
2 4 6 5 7 8 8 7 5 2 2 4 8 6 7 6 7 6 5 5 5 5 5 5 5 4 3 2 1 2 3 3 3 6 8 8 8 6 5 4 4 4 4 4
5 2 1 3 8 7 9 8 4 3 4 7 4 7 8 4 4 5 7 6 6 5 4 4 5 4 3 2 2 2 3 3 2 3 4 5 6 6 5 4 3 3 2 2
11 8 9 6 7 9 10 10 9 8 7 4 2 8 8 2 3 4 4 5 5 5 4 5 5 5 4 3 3 3 3 3 3 3 3 3 3 3 2 2 2 2 2 2
13 8 10 6 1 9 9 9 5 6 3 3 6 7 6 3 3 4 5 5 6 6 6 6 5 5 4 4 4 4 5 5 5 5 6 5 5 4 4 3 3 3 3 2
4 8 7 3 2 1 4 7 4 6 8 5 6 7 6 7 10 9 9 8 7 7 7 6 5 5 5 4 5 5 6 6 6 6 6 6 6 5 5 5 5 5 4 4
2 8 5 3 10 10 5 8 7 7 6 7 5 8 5 9 9 9 9 8 9 8 7 6 6 5 5 5 5 6 6 7 7 7 7 7 7 7 7 6 6 5 5 5
5 7 6 5 1 0 6 8 9 9 7 6 4 8 1 4 4 6 8 8 8 8 7 7 7 6 5 5 5 6 6 6 6 6 7 7 7 7 7 6 6 5 5 5
9 9 8 3 1 3 6 8 10 6 5 5 6 9 1 3 3 5 7 8 7 7 7 7 6 6 5 5 6 6 6 6 6 6 7 8 7 7 7 6 6 6 5 5
9 6 9 14 10 10 7 8 10 8 6 7 11 9 4 5 5 6 7 8 8 7 7 7 6 6 6 6 6 6 6 5 6 7 8 8 7 7 6 6 6 6 5 5
6 7 7 6 4 12 10 13 14 13 13 11 12 14 10 10 10 10 9 9 9 9 8 8 7 6 6 6 6 6 6 5 6 7 8 7 6 6 6 6 5 5 5 5
5 6 5 3 2 4 7 13 17 18 16 15 12 13 6 7 8 9 11 12 11 10 10 9 9 9 8 7 7 7 6 6 6 8 7 6 6 6 6 5 4 5 4 4
7 7 7 5 4 4 7 15 18 15 14 14 19 18 3 4 9 12 12 13 13 12 11 11 10 9 8 7 7 7 7 7 7 7 6 5 5 6 5 4 4 4 4 4
9 8 5 5 6 10 15 8 11 14 15 15 14 8 6 8 8 9 10 13 12 11 11 11 10 10 8 7 8 8 7 7 7 7 6 5 5 5 4 4 4 3 3 3
7 9 6 6 7 9 8 7 13 14 16 15 16 12 7 5 3 4 6 8 10 10 10 9 10 10 9 9 9 9 8 7 7 6 5 4 4 4 4 4 3 3 3 3
4 6 6 6 7 13 10 8 8 7 15 11 11 11 8 9 7 8 6 7 7 9 9 10 11 11 10 9 9 10 9 7 6 5 4 4 3 3 3 2 2 2 3 3
9 7 10 9 8 10 4 4 10 12 13 3 7 8 9 11 9 4 7 6 8 9 11 11 11 10 8 8 9 10 8 7 5 4 4 4 3 2 2 1 1 2 3 4
13 10 10 8 9 12 5 8 10 7 2 2 1 2 4 4 5 7 8 9 10 11 11 11 11 9 7 7 9 9 8 6 5 4 4 3 2 1 1 1 2 2 3 4
10 10 7 9 9 2 7 6 3 4 4 3 2 2 5 6 6 7 7 9 9 10 10 9 11 10 7 5 7 9 6 5 5 4 3 2 1 1 1 1 2 2 2 2
4 3 4 4 5 3 3 2 2 2 3 3 3 4 5 6 8 8 8 9 9 9 9 9 10 10 7 5 6 7 6 5 4 4 3 2 1 1 1 1 1 2 2 3
6 6 5 5 2 1 2 4 4 3 3 4 3 3 5 8 8 8 8 9 9 8 8 8 8 9 8 7 6 6 5 4 4 3 2 2 1 1 1 1 2 3 3 4
5 7 8 7 7 6 4 4 6 6 5 5 5 4 4 7 8 9 8 8 8 8 8 8 8 8 8 7 6 5 4 3 4 3 2 1 1 1 1 2 3 6 7 9
Wind_Direction
181 198 205 203 212 232 219 211 213 194 140 174 212 239 238 203 192 212 227 229 218 211 206 187 177 174 173 177 177 178 180 183 185 189 190 193 197 194 193 194 190 188 185 187
177 216 210 207 207 229 252 236 214 117 99 179 235 249 247 237 220 210 212 220 220 212 196 174 165 166 177 185 188 185 184 183 186 193 193 194 194 195 197 195 198 195 189 187
194 199 198 209 200 204 227 236 218 141 113 20 338 282 239 236 228 223 217 220 225 211 188 173 170 171 175 190 197 197 193 187 187 186 186 186 195 197 191 195 199 200 194 190
212 201 182 190 196 185 212 224 137 125 136 193 182 262 248 216 213 213 217 219 223 215 186 164 162 168 173 188 193 200 202 195 187 183 189 188 194 202 203 192 191 191 194 194
201 179 180 188 189 178 164 128 116 138 167 182 189 237 275 204 199 216 217 210 204 189 161 143 129 131 126 138 174 197 206 208 195 186 187 193 202 205 198 186 183 186 188 191
153 157 177 186 175 161 121 91 77 95 157 240 209 205 261 214 200 207 197 169 143 119 105 102 95 91 91 99 135 183 194 209 202 185 182 192 199 196 194 195 182 178 176 181
141 165 93 112 125 135 153 135 125 169 204 235 202 204 242 222 174 172 161 142 125 125 129 131 131 132 125 127 149 163 166 176 168 160 170 179 185 187 194 196 185 168 160 162
168 184 188 188 163 163 189 170 160 174 197 217 312 229 248 221 108 96 120 132 133 143 140 129 123 119 117 118 118 113 114 111 108 114 117 118 133 144 144 144 135 131 125 123
180 188 160 179 168 150 173 211 186 131 117 172 225 248 260 201 200 193 187 177 175 161 143 132 122 114 113 105 99 105 103 93 85 86 87 87 91 99 100 93 86 85 80 76
170 144 140 113 97 345 184 165 146 148 157 210 235 221 224 204 219 210 197 187 168 150 140 133 123 110 99 92 85 84 94 95 88 84 85 87 82 84 86 84 80 75 67 63
230 121 131 146 193 178 169 169 173 163 171 174 223 246 220 194 193 189 185 168 157 152 149 139 127 116 109 99 93 88 87 88 87 86 86 86 82 78 77 76 72 69 63 55
169 119 149 188 156 307 201 183 175 169 201 190 198 256 302 95 121 140 150 148 145 144 141 135 131 126 119 110 102 94 89 88 87 88 87 86 82 79 77 73 65 64 63 55
152 129 120 130 191 227 225 214 205 193 149 169 193 252 201 112 119 136 143 143 142 143 139 136 135 135 128 118 108 98 91 90 88 87 87 83 77 74 73 68 62 58 57 53
149 156 169 184 188 170 192 207 205 196 185 201 216 227 193 184 176 170 162 158 157 158 154 152 149 142 130 120 112 105 96 90 90 88 87 82 76 73 70 65 59 54 51 47
150 190 208 211 179 162 177 192 199 207 208 203 225 229 214 193 191 183 170 164 167 171 172 169 160 147 135 126 117 111 103 93 93 93 87 81 76 71 66 60 53 51 49 44
169 179 178 221 229 177 185 195 199 211 220 230 243 249 218 182 166 163 168 173 183 186 183 172 161 153 150 142 132 120 110 99 94 92 86 80 77 71 64 57 51 50 45 35
160 146 153 192 146 78 239 207 199 207 216 218 235 243 201 179 176 180 182 186 192 189 180 173 168 161 152 143 134 127 116 103 97 94 89 82 79 73 61 55 53 46 35 25
150 143 139 131 126 210 234 198 194 211 222 220 233 242 195 194 194 191 185 185 189 183 177 170 159 149 139 129 122 115 110 107 105 99 91 82 78 74 62 56 49 35 26 14
149 145 147 158 194 246 256 203 197 208 235 220 228 235 206 173 161 224 193 181 184 178 165 154 145 138 133 130 126 121 115 111 106 100 93 81 77 75 62 51 32 19 3 348
162 145 159 177 197 226 238 186 164 177 247 225 217 223 194 157 204 230 179 165 156 142 137 134 131 129 131 130 129 126 123 116 108 103 97 85 76 72 61 39 13 359 341 326
178 180 196 198 217 248 229 160 138 183 236 200 201 208 186 190 210 164 133 130 126 125 125 125 124 125 129 130 128 125 120 114 110 105 100 87 71 64 61 30 359 341 333 326
180 182 193 190 212 236 173 149 175 199 145 147 157 168 159 145 112 113 117 120 121 119 118 121 120 116 113 121 126 122 117 112 107 102 95 85 68 49 52 19 350 340 328 318
190 188 180 194 216 190 170 174 157 132 141 150 145 133 132 129 131 127 125 124 122 122 121 120 122 116 103 100 119 123 119 113 106 99 96 93 73 49 38 8 343 332 320 310
211 156 163 205 227 178 170 116 121 118 139 147 145 144 142 141 140 134 132 130 128 126 128 128 128 127 119 101 98 109 112 110 116 115 109 97 75 46 24 338 310 303 303 304
177 164 177 211 200 135 231 202 165 130 117 120 121 136 146 140 143 144 144 143 141 135 132 135 139 137 133 123 109 104 108 119 120 118 112 99 81 40 333 307 279 282 256 255
183 175 181 208 191 177 198 185 163 159 167 161 147 137 135 147 150 145 146 145 142 141 139 139 137 137 137 131 123 113 108 117 128 126 116 104 83 23 332 319 310 302 297 296